Content
SEND FEEDBACK

Daily
Averages
Monthly
Summary
Greece

IRAKLION, GREECE


Home > Europe > Greece
Elevation: 128 feet     Latitude: 35 20N     Longitude: 025 11E

WEATHER
 
SELECT A DAY
Number of Records: 291,908;   Date Range: 7/1/96 - 9/29/14
 
SHARE

PRINT THIS DATA

[ ← Previous Day ]
WEATHER ALMANAC - JANUARY 31, 2013
[ Next Day → ]
[ °C ]   °F
Weather ElementAverageHighLow
Temperature55.7 °F60.8 °F (3:50 pm)50 °F (3:50 am)
Dewpoint45.7 °F51.8 °F (11:50 pm)40 °F (2:00 am)
Humidity68.6 %88 % (7:50 pm)51 % (2:00 am)
Barometer29.91 in29.96 in (2:00 am)29.86 in (7:50 pm)
Wind Speed14 mph24.2 mph (11:50 pm)
Weather ElementAverage
Visibility6.2 mi
Wind DirectionWNW (288.5 °)

Weather ElementTotal
Precipitation---
Heating Degree Days9.6 (Base 65)
Growing Degree Days5.4 (Base 50)
Averaged from 47 records on January 31, 2013
WEATHER CONDITIONS BREAKOUT
WIND DIRECTION BREAKOUT
WEATHER BY HOUR - JANUARY 31, 2013
[ °C ]   °F
Local TimeTemperatureDewpointHumidityBarometerVisibilityWind DirectionWind SpeedGust SpeedPrecipitationEventsConditions
12:50 AM53.6 °F42.8 °F67 %29.95 in6.2 miNNW (330°)18.4 mphScattered Clouds
1:20 AM53.6 °F42.8 °F67 %29.95 in6.2 miNNW (330°)18.4 mphScattered Clouds
1:50 AM53.6 °F41.0 °F62 %29.95 in6.2 miNNW (330°)19.6 mphScattered Clouds
2:00 AM53.0 °F40.0 °F51 %29.96 in6.0 miNNW (330°)19.6 mphScattered Clouds
2:20 AM53.6 °F41.0 °F62 %29.95 in6.2 miNNW (340°)18.4 mphScattered Clouds
2:50 AM51.8 °F41.0 °F67 %29.95 in6.2 miNNW (340°)17.3 mphScattered Clouds
3:50 AM50.0 °F41.0 °F71 %29.95 in6.2 miNNW (340°)19.6 mphScattered Clouds
4:50 AM53.6 °F42.8 °F67 %29.92 in6.2 miNNW (330°)20.7 mphScattered Clouds
5:20 AM53.6 °F42.8 °F67 %29.92 in6.2 miNNW (330°)20.7 mphScattered Clouds
5:50 AM53.6 °F42.8 °F67 %29.92 in6.2 miNW (320°)20.7 mphScattered Clouds
6:20 AM53.6 °F42.8 °F67 %29.92 in6.2 miNNW (330°)18.4 mphScattered Clouds
6:50 AM53.6 °F44.6 °F72 %29.92 in6.2 miNW (320°)20.7 mphScattered Clouds
7:20 AM53.6 °F44.6 °F72 %29.92 in6.2 miNW (320°)17.3 mphScattered Clouds
7:50 AM53.6 °F44.6 °F72 %29.89 in6.2 miNW (320°)15.0 mphScattered Clouds
8:00 AM54.0 °F45.0 °F62 %29.91 in9.0 miNW (320°)15.0 mphPartly Cloudy
8:20 AM53.6 °F44.6 °F72 %29.89 in6.2 miNW (320°)16.1 mphScattered Clouds
8:50 AM53.6 °F46.4 °F77 %29.92 in6.2 miNW (320°)16.1 mphScattered Clouds
9:20 AM53.6 °F46.4 °F77 %29.92 in6.2 miNW (320°)13.8 mphMostly Cloudy
9:50 AM55.4 °F44.6 °F67 %29.92 in6.2 miNW (320°)16.1 mphScattered Clouds
10:20 AM55.4 °F44.6 °F67 %29.92 in6.2 miNW (320°)16.1 mphScattered Clouds
10:50 AM57.2 °F44.6 °F63 %29.92 in6.2 miNW (320°)15.0 mphPartly Cloudy
11:20 AM57.2 °F44.6 °F63 %29.92 in6.2 miNW (320°)15.0 mphPartly Cloudy
11:50 AM59.0 °F48.2 °F67 %29.92 in6.2 miNW (310°)13.8 mphPartly Cloudy
12:20 PM59.0 °F48.2 °F67 %29.92 in6.2 miNW (310°)13.8 mphPartly Cloudy
12:50 PM59.0 °F48.2 °F67 %29.92 in6.2 miWNW (300°)13.8 mphPartly Cloudy
1:20 PM59.0 °F48.2 °F67 %29.92 in6.2 miNW (310°)10.4 mphPartly Cloudy
1:50 PM59.0 °F48.2 °F67 %29.89 in6.2 miNW (320°)11.5 mphPartly Cloudy
2:00 PM59.0 °F47.0 °F56 %29.91 in6.0 miNW (320°)11.5 mphScattered Clouds
2:20 PM59.0 °F48.2 °F67 %29.89 in6.2 miNW (320°)11.5 mphPartly Cloudy
2:50 PM59.0 °F48.2 °F67 %29.89 in6.2 miNW (310°)10.4 mphPartly Cloudy
3:20 PM59.0 °F48.2 °F67 %29.89 in6.2 miNW (310°)10.4 mphPartly Cloudy
3:50 PM60.8 °F48.2 °F63 %29.89 in6.2 miNW (310°)10.4 mphPartly Cloudy
4:20 PM60.8 °F48.2 °F63 %29.89 in6.2 miNW (310°)10.4 mphPartly Cloudy
4:50 PM59.0 °F48.2 °F67 %29.89 in6.2 miNW (310°)13.8 mphPartly Cloudy
5:20 PM59.0 °F48.2 °F67 %29.89 in6.2 miNW (310°)13.8 mphPartly Cloudy
5:50 PM57.2 °F50.0 °F77 %29.89 in6.2 miWNW (300°)8.1 mphPartly Cloudy
6:20 PM57.2 °F50.0 °F77 %29.89 in6.2 miWNW (300°)8.1 mphPartly Cloudy
6:50 PM53.6 °F46.4 °F77 %29.89 in6.2 miVariable3.5 mphPartly Cloudy
7:20 PM53.6 °F46.4 °F77 %29.89 in6.2 miVariable3.5 mphPartly Cloudy
7:50 PM51.8 °F48.2 °F88 %29.86 in6.2 miVariable3.5 mphScattered Clouds
8:00 PM52.0 °F47.0 °F79 %29.87 in6.0 mi°3.5 mphPartly Cloudy
8:20 PM51.8 °F48.2 °F88 %29.86 in6.2 miVariable3.5 mphScattered Clouds
8:50 PM57.2 °F44.6 °F63 %29.86 in6.2 miWest (260°)6.9 mphScattered Clouds
9:20 PM57.2 °F44.6 °F63 %29.86 in6.2 miWest (260°)6.9 mphScattered Clouds
9:50 PM57.2 °F44.6 °F63 %29.89 in6.2 miWNW (290°)20.7 mphScattered Clouds
10:20 PM57.2 °F44.6 °F63 %29.89 in6.2 miWNW (290°)21.9 mphScattered Clouds
11:50 PM59.0 °F51.8 °F77 %29.86 in6.2 miNorth (350°)24.2 mphScattered Clouds
Hourly data recorded from LGIR, located miles away from Iraklion, Greece







STORIES FROM OUR PARTNERS